Location: Chevoux
(46.3801°N, 4.9476°E)
Time: 04:31:29
(UTC+00:00)

Envisat - Pass Details

Date: 05 December 2021
Orbit: 764 x 766 km, 98.2° (Epoch: 16 January)

Event Time Altitude Azimuth Distance (km) Brightness Sun altitude
Rises 04:53:47 0° 12° (NNE) 3,244 6.3 -22.2°
Reaches altitude 10° 04:56:06 10° 12° (NNE) 2,313 5.5 -21.8°
Maximum altitude 05:01:12 83° 285° (WNW) 778 2.9 -21.0°
Drops below altitude 10° 05:06:16 10° 199° (SSW) 2,295 5.4 -20.1°
Sets 05:08:33 0° 198° (SSW) 3,217 6.2 -19.7°
